Location: Atherton
(17.2661°S, 145.4859°E)
Time: 19:33:04
(UTC+10:00)

Hubble Space Telescope - Pass Details

Date: 10 February 2026
Orbit: 476 x 479 km, 28.5° (Epoch: 9 March)

Event Time Altitude Azimuth Distance (km) Brightness Sun altitude
Rises 20:32:25 0° 289° (WNW) 2,510 4.9 -23.0°
Reaches altitude 10° 20:34:38 10° 285° (WNW) 1,635 3.9 -23.4°
Enters shadow 20:37:49 56° 249° (WSW) 570 1.1 -24.1°
